This demonstration page uses our WeatherBlox Daily Observations layout. Learn more.

39.01783, -85.05884

Hourly Observations for June 27, 2019

Temp ( °F °C ) Dew Point ( °F °C ) Humidity (%) Winds ( mph kmh ) Pressure ( in mb ) Visibility ( mi km ) Precip ( " mm )
12:52 am 00:52 Cloudy 75 23.9 66 18.9 74 74 SSW 6 9 30.09 1019 10 16.09344 0 0
1:52 am 01:52 Cloudy 74 23.3 67 19.4 79 79 SSW 5 7 30.12 1020 10 16.09344 0 0
2:52 am 02:52 Mostly Cloudy 74 23.3 67 19.4 79 79 SW 7 11 30.12 1020 10 16.09344 0 0
3:52 am 03:52 Mostly Cloudy 72 22.2 67 19.4 84 84 SSW 5 7 30.12 1020 10 16.09344 0 0
4:52 am 04:52 Mostly Cloudy 70 21.1 66 18.9 87 87 Calm 30.12 1020 9 14.484096 0 0
5:52 am 05:52 Mostly Cloudy 71 21.7 67 19.4 87 87 WNW 5 7 30.12 1020 10 16.09344 0 0
6:52 am 06:52 Mostly Cloudy 70 21.1 66 18.9 87 87 Calm 30.12 1020 8 12.874752 0 0
7:52 am 07:52 Cloudy 72 22.2 68 20 87 87 S 3 6 30.15 1021 7 11.265408 0 0
8:52 am 08:52 Mostly Cloudy 74 23.3 69 20.6 85 85 SSW 3 6 30.15 1021 9 14.484096 0 0
9:52 am 09:52 Mostly Cloudy 76 24.4 69 20.6 79 79 S 9 15 30.15 1021 10 16.09344 0 0
10:52 am 10:52 Mostly Cloudy 79 26.1 69 20.6 72 72 S 5 7 30.18 1022 10 16.09344 0 0
11:52 am 11:52 Mostly Cloudy 83 28.3 69 20.6 63 63 WNW 3 6 30.18 1022 10 16.09344 0 0
12:52 pm 12:52 Mostly Cloudy 85 29.4 65 18.3 51 51 SSW 9 15 30.15 1021 10 16.09344 0 0
1:52 pm 13:52 Mostly Cloudy 86 30 66 18.9 51 51 VRB 7 11 30.15 1021 10 16.09344 0 0
2:52 pm 14:52 Mostly Cloudy 86 30 65 18.3 49 49 S 9 15 30.15 1021 10 16.09344 0 0
3:52 pm 15:52 Mostly Cloudy 87 30.6 64 17.8 46 46 SW 9 15 30.12 1020 10 16.09344 0 0
4:52 pm 16:52 Mostly Cloudy 87 30.6 67 19.4 51 51 SSW 7 11 30.12 1020 10 16.09344 0 0
5:52 pm 17:52 Mostly Cloudy 87 30.6 66 18.9 50 50 W 8 13 30.12 1020 10 16.09344 0 0
6:52 pm 18:52 Mostly Cloudy 85 29.4 66 18.9 53 53 SSW 6 9 30.12 1020 10 16.09344 0 0
7:52 pm 19:52 Partly Cloudy 85 29.4 67 19.4 55 55 Calm 30.12 1020 10 16.09344 0 0
8:52 pm 20:52 Partly Cloudy 82 27.8 65 18.3 56 56 SW 6 9 30.12 1020 10 16.09344 0 0
9:52 pm 21:52 Partly Cloudy 79 26.1 66 18.9 65 65 WSW 3 6 30.15 1021 10 16.09344 0 0
10:52 pm 22:52 Partly Cloudy 77 25 67 19.4 71 71 WSW 3 6 30.15 1021 10 16.09344 0 0
11:52 pm 23:52 Partly Cloudy 78 25.6 66 18.9 67 67 WSW 5 7 30.18 1022 10 16.09344 0 0

Powered by AerisWeather